Regional Weather Roundup
Issued by NWS Lake Charles, LA

Home | Current Version | Previous Version | Text Only | Print | Product List | Glossary On
Versions: 1 2 3 4 5 6 7 8 9 10 11 12 13 14 15 16 17 18 19 20 21 22 23 24 25 26 27 28 29 30 31 32 33 34 35 36 37 38 39 40 41 42 43 44 45 46 47 48 49 50
000
ASUS44 KLCH 302310
RWRLCH
RWRLCH
REGIONAL WEATHER ROUNDUP
NATIONAL WEATHER SERVICE LAKE CHARLES LA
500 PM CST FRI JAN 30 2015

Note: "fair" indicates few or no clouds below 12,000 feet with no
significant weather and/or obstructions to visibility.


ACROSS SOUTHEAST TEXAS

CITY           SKY/WX    TMP DP  RH WIND       PRES   REMARKS
BEAUMONT       PTCLDY    60  34  37 NE8       30.31F
BEAUMONT CITY    N/A     58  35  42 NE3       30.32F
ORANGE         PTCLDY    60  35  40 NE5       30.33F
JASPER         PTCLDY    58  34  41 NE5       30.36F
$$

ACROSS CENTRAL LOUISIANA

CITY           SKY/WX    TMP DP  RH WIND       PRES   REMARKS
LEESVILLE      PTCLDY    56  32  40 E5        30.34S
FULLERTON        N/A     58  34  40 CALM      30.33R
ALEXANDRIA INT PTCLDY    56  31  38 N8        30.34S
ESLER FIELD    PTCLDY    54  31  41 N7        30.37R
DERIDDER         N/A     58  28  31 CALM      30.36S
OAKDALE        PTCLDY    57  34  42 CALM      30.35S
OPELOUSAS        N/A     55  35  46 N8        30.34R
$$

ACROSS SOUTHWEST AND SOUTH CENTRAL LOUISIANA

CITY           SKY/WX    TMP DP  RH WIND       PRES   REMARKS
SULPHUR        PTCLDY    62  32  33 NE6       30.33S
LAKE CHARLES   PTCLDY    59  35  40 NE10      30.32S
CHENNAULT INT  NOT AVBL
CAMERON PHI    CLEAR     57  39  51 E6        30.35S
DEQUINCY         N/A     57  34  42 CALM      30.34S
JENNINGS         N/A     55  34  44 NE7       30.33S
LAFAYETTE      MOCLDY    58  36  43 N9        30.32F
NEW IBERIA     MOCLDY    61  34  36 N9        30.32F
ABBEVILLE        N/A     59  33  38 NE6       30.32S
PATTERSON      PTCLDY    57  34  41 NE7       30.32F
SALT POINT       N/A     60  35  39 VRB3      30.30S
$$

SELECTED SITES ACROSS THE REGION

CITY           SKY/WX    TMP DP  RH WIND       PRES   REMARKS
HOUSTON BUSH   PTSUNNY   60  37  42 E8        30.31S
HOUSTON HOBBY  PTSUNNY   61  37  41 E7        30.30S
GALVESTON      MOSUNNY   56  44  64 E12       30.31F
COLLEGE STAT   MOSUNNY   59  34  39 NE8       30.31F
CONROE         MOSUNNY   58  36  43 NE6       30.32S
HUNTSVILLE     MOSUNNY   59  30  33 E7        30.31F
LUFKIN         PTCLDY    59  31  34 E7        30.34F
SHREVEPORT     MOCLDY    56  28  34 E5        30.36F
MONROE         PTCLDY    51  32  48 E7        30.40F
NATCHEZ MS     MOCLDY    54  30  40 N7        30.37S
BATON ROUGE    MOCLDY    59  29  31 N5        30.32F
N.O. INTL ARPT MOCLDY    56  33  42 N5        30.32S
SLIDELL        MOCLDY    57  32  38 N6        30.31S
$$

MARINE REPORTS

STATION/POSITION TIME  TEMP    WIND        PRES    VSBY  WAVE
                       AIR SEA DIR/SP/G                  HT/PER
                 (UTC) (F)     (DEG/KT/KT) (MB)    (MI)  (FT/S)
BUOY 30 S HIGH I 2300   54 57   70/ 14/ 16 1026.0F         3/ 5
SEA RIM ST PARK  2300   58      70/  9/ 11 1027.1F
PORT ARTHUR      2300      54   50/  1/  3 1026.8R
SABINE PASS N    2300   60 56   70/  9/ 11 1026.6S
TEXAS POINT      NOT AVBL
CALCASIEU PASS   2300   58 57   70/  7/ 10   N/A
LK CHARLES BEACH 2300   61 55              1027.0R
MARSH ISLAND     2200   57      60/ 10/ 12   N/A
FRESH WATER LOCK 2300   61 59   30/  7/ 11 1026.4S
AMERADA PASS     2300   59 52   40/  5/  7 1026.1F
$$



USA.gov is the U.S. government's official web portal to all federal, state and local government web resources and services.